Regional Weather Roundup
Issued by NWS Cleveland, OH

Home | Current Version | Previous Version | Graphics & Text | Print | Product List | Glossary On
Versions: 1 2 3 4 5 6 7 8 9 10 11 12 13 14 15 16 17 18 19 20 21 22 23 24 25 26 27 28 29 30 31 32 33 34 35 36 37 38 39 40 41 42 43 44 45 46 47 48 49 50
000
ASUS41 KCLE 210810
RWRCLE
OHIO REGIONAL WEATHER ROUNDUP
NATIONAL WEATHER SERVICE WILMINGTON, OH
300 AM EST TUE NOV 21 2017

NOTE: "FAIR" INDICATES FEW OR NO CLOUDS BELOW 12,000 FEET WITH NO
SIGNIFICANT WEATHER AND/OR OBSTRUCTIONS TO VISIBILITY.

OHZ001>008-015>018-024>027-034-035-043-044-210900-
   NORTHWEST OHIO

CITY           SKY/WX    TMP DP  RH WIND       PRES   REMARKS
DEFIANCE       FAIR      38  25  59 SW13      29.82F
FINDLAY        FAIR      43  21  41 SW24G35   29.84F
TOLEDO EXPRESS FAIR      39  27  62 SW13G20   29.81S
TOLEDO EXEC    FAIR      41  25  53 SW17      29.83S
LIMA           FAIR      39  25  57 SW17G25   29.85F
$$

OHZ009>014-019>023-028>033-038-089-210900-
   NORTHEAST OHIO

CITY           SKY/WX    TMP DP  RH WIND       PRES   REMARKS
CLE-HOPKINS    FAIR      40  23  50 S13       29.89F
CLE-LAKEFRONT  FAIR      42  21  43 S18G29    29.86F
CUY CO. ARPT   NOT AVBL
LORAIN-ELYRIA  FAIR      39  19  44 S14       29.87F
ASHTABULA      FAIR      37  23  56 S13       29.90S
AKRON-CANTON   FAIR      39  21  48 S15       29.92F
WOOSTER        FAIR      36  23  59 SW12      29.92S
MANSFIELD      FAIR      40  22  48 S18G24    29.89S
YOUNGSTOWN     FAIR      37  22  54 S10       29.92S
$$

OHZ042-051>053-060>062-070>072-077>081-210900-
  SOUTHWEST OHIO

CITY           SKY/WX    TMP DP  RH WIND       PRES   REMARKS
CINC-COVINGTON FAIR      37  25  61 S13       29.96S
CINC-LUNKEN    FAIR      30  27  88 SW3       30.00S
HAMILTON       FAIR      30  27  88 SE5       29.97S WCI  25
DAYTON         FAIR      37  25  61 S14       29.93S
WRIGHT-PAT AFB CLEAR     37  22  55 S13       29.94R
DAYTON GENERAL FAIR      37  24  59 S14       29.94R
WILMINGTON     FAIR      36  26  67 SW9       29.96R
$$

OHZ036-037-039>041-045>050-054>059-063>069-073>076-082>088-210900-
  CENTRAL AND SOUTHEAST OHIO

CITY           SKY/WX    TMP DP  RH WIND       PRES   REMARKS
COLUMBUS       FAIR      38  24  57 S7        29.95F
OSU AIRPORT    FAIR      35  25  66 S10       29.94S WCI  27
BOLTON FIELD   FAIR      32  25  73 S7        29.96S WCI  26
RICKENBACK AFB FAIR      35  24  63 S12       29.96S WCI  27
NEWARK         FAIR      32  22  66 CALM      29.95F
MARION         FAIR      36  24  62 S13       29.91S
LANCASTER      FAIR      37  23  56 S6        29.97S
ZANESVILLE     FAIR      36  22  56 S8        29.97S
NEW PHILLY     FAIR      41  22  46 S9        29.96F
$$




USA.gov is the U.S. government's official web portal to all federal, state and local government web resources and services.